Preview of NWS' New Version of Forecast
This preview is not operational and should not be used for support decisions.
Latest weather observations around

Barre / Montpelier, Knapp State Airport (KMPV)

Using International System of Units (Switch to English Units)
Date/ Time (EDT) Wind (kph) Vis. (km) Weather Sky Cond. Temp (°C) Rel. Humidity Wind Chill (°C) Heat Index (°C) Pressure Precip. (cm)
Air Dwpt 6 hour Altimeter (hPa) Sea level (hPa) 1 hr 3 hr 6 hr
Max Min
Sep 15 17:51 WNW 8 16.09 Light Rain OVC060 17 11     70%       1019 0    
Sep 15 16:51 W 9 16.09 Cloudy OVC080 18 9     56%       1019 0 0  
Sep 15 15:51 W 17 16.09 Partly Cloudy SCT110 19 9     52%       1018.6      
Sep 15 14:51 W 15 16.09 Clear CLR 19 9     54%       1019.1      
Sep 15 13:51 W 15 16.09 Clear CLR 19 9     51%       1019.8      
Sep 15 12:51 WNW 17 16.09 Clear CLR 19 9     52%       1019.9      
Sep 15 11:51 9 16.09 Mostly Cloudy BKN044 18 9     56%       1020.6      
Sep 15 10:51 NW 13 16.09 Clear CLR 17 9     58%       1020.9      
Sep 15 09:51 WNW 18 16.09 Clear CLR 17 11     70%       1021.3      
Sep 15 08:51 NW 11 16.09 Mostly Clear FEW031 15 12     83%       1021.3      
Sep 15 07:51 Calm 16.09 Mostly Clear FEW045 13 12     93%       1021.5      
Sep 15 06:51 Calm 16.09 Mostly Clear FEW047 11 10     96%       1021.6      
Sep 15 05:51 SSE 8 16.09 Clear CLR 10 9     96%       1021.4      
Sep 15 04:51 SSE 8 16.09 Clear CLR 10 10     100%       1021.2      
Sep 15 03:51 S 8 16.09 Mostly Clear FEW046 10 10     100%       1021.1      
Sep 15 02:51 Calm 16.09 Mostly Clear FEW035 12 11     93%       1021.2      
Sep 15 01:51 SW 5 16.09 Clear CLR 13 12     93%       1021      
Sep 15 00:51 S 5 16.09 Clear CLR 14 13     93%       1021.1      
Sep 14 23:51 Calm 16.09 Cloudy BKN031 BKN039 OVC046 16 14     90%       1020.8      
Sep 14 22:51 5 16.09 Partly Cloudy SCT050 17 14     86%       1020.9      
Sep 14 21:51 SSW 15 16.09 Mostly Clear FEW029 FEW049 17 14     84%       1020.8      
Sep 14 20:51 S 13 16.09 Mostly Cloudy FEW022 BKN041 17 14     84%       1020.8      
Sep 14 19:51   16.09 Partly Cloudy FEW021 FEW028 SCT042 17 14     84%       1020.4      
Sep 14 19:09 S 15 16.09 Mostly Cloudy SCT024 BKN033 BKN046 17 14     84%              
Sep 14 18:51 S 18 16.09 Cloudy BKN024 OVC032 17 14     84%       1020.5      
Sep 14 17:51 S 21 16.09 Cloudy BKN022 OVC026 17 14     84%       1020.5      
Sep 14 16:51   16.09 Cloudy BKN021 OVC025 16 14     87%       1020.7      
Sep 14 15:51 S 24 16.09 Cloudy BKN022 OVC029 16 13     83%       1021      
Sep 14 14:51 S 17 16.09 Cloudy OVC020 16 13     83%       1021.7      
Sep 14 13:51 S 18 16.09 Cloudy SCT014 OVC022 16 13     83%       1022.4     0
Sep 14 13:37 S 18 16.09 Cloudy SCT013 OVC022 16 13     81%              
Sep 14 12:51 S 17 16.09 Cloudy OVC013 14 12     87%              
Sep 14 12:27 S 17 16.09 Cloudy OVC013 14 11     83%              
Sep 14 11:51 S 17 16.09 Cloudy BKN015 OVC024 13 11     84%              
Sep 14 10:51 S 18 16.09 Cloudy SCT017 OVC024 13 10     83%       1024.7   0  
Sep 14 09:51 S 26 16.09 Cloudy BKN023 OVC030 12 9     83%       1025 0    
Sep 14 09:47 S 22 16.09 Cloudy BKN023 OVC030 12 9     82%         0    
Sep 14 09:25 S 22 16.09 Light Rain SCT024 BKN030 OVC035 12 9     83%         0    
Sep 14 08:51 S 13 16.09 Light Rain BKN025 OVC110 12 8     80%       1025.3 0    
Sep 14 07:51 S 21 16.09 Cloudy OVC027 12 8     77%       1025.8      
Sep 14 06:51 S 21 16.09 Cloudy OVC029 11 7     77%       1026.1      
Sep 14 06:49 S 15 16.09 Cloudy OVC029 11 7     76%              
Sep 14 05:51 S 17 16.09 Cloudy OVC032 11 7     77%              
Sep 14 04:51 S 26 16.09 Cloudy BKN031 OVC090 11 6     74%       1025.9      
Sep 14 03:51 S 26 16.09 Cloudy OVC043 11 6     74%              
Sep 14 02:51 S 28 16.09 Cloudy OVC043 11 6     69%       1027.2      
Sep 14 01:51 S 26 16.09 Partly Cloudy SCT055 11 5     68%       1028.2      
Sep 14 00:51 S 28 16.09 Clear CLR 11 5     68%       1028.5      
Sep 13 23:51 S 18 16.09 Clear CLR 11 5     68%              
Sep 13 22:51 SSE 21 16.09 Clear CLR 12 6     66%       1029.7      
Sep 13 21:51 SSE 22 16.09 Clear   12 6     64%       1030.4      
Sep 13 20:51 S 15 16.09 Clear CLR 12 6     69%              
Sep 13 19:51 SSE 15 16.09 Clear CLR 13 6     64%       1030.6      
Sep 13 18:51 S 13 16.09 Clear CLR 14 6     57%              
Sep 13 17:51 SSE 18 16.09 Clear CLR 17 6     48%       1031.5      
Sep 13 16:51 S 21 16.09 Clear CLR 17 6     48%              
Sep 13 15:51 S 22 16.09 Clear CLR 18 6     45%       1032      
Sep 13 14:51 S 21 16.09 Clear CLR 18 5     43%              
Sep 13 13:51 S 26 16.09 Clear CLR 17 6     46%       1033.2      
Sep 13 12:51 S 17 16.09 Clear CLR 17 7     50%              
Sep 13 11:51 S 21 16.09 Clear CLR 17 7     52%       1034.3      
Sep 13 10:51 NE 5 16.09 Clear CLR 12 9     80%       1034.8      
Sep 13 10:04 Calm 16.09 Partly Cloudy SCT002 8 8     97%              
Sep 13 09:51 Calm 9.66 Fog/Mist BKN002 7 7     100%              
Sep 13 09:49 Calm 4.83 Fog/Mist BKN002 7 7     100%              
Sep 13 09:47 Calm 2.82 Fog/Mist OVC002 7 7     100%              
Sep 13 09:44 Calm 1.61 Fog/Mist VV002 7 7     100%              
Sep 13 09:36 Calm 2.01 Fog/Mist OVC002 7 7     100%              
Sep 13 09:26 Calm 0.8 Fog VV002 7 7     100%              
Sep 13 09:19 E 5 1.61 Fog/Mist OVC002 7 7     100% 6            
Sep 13 09:17 E 8 2.82 Fog/Mist OVC001 7 7     100% 5            
Sep 13 09:11 E 5 4.83 Fog/Mist OVC001 7 7     100% 6            
Sep 13 09:06 Calm 2.41 Fog/Mist OVC001 7 7     100%              
Sep 13 08:59 NE 5 1.61 Fog/Mist OVC001 7 7     100% 6            
Sep 13 08:51 Calm 2.41 Fog/Mist OVC001 6 6     100%       1035.6      
Sep 13 07:51 Calm 0.4 Fog VV001 6 6     100%       1034.8      
Sep 13 06:51 Calm 0.4 Fog VV001 5 5     100%       1033.9      
Sep 13 05:51 Calm 0.4 Fog VV001 5 5     100%       1033      
Sep 13 04:51 Calm 0.4 Fog VV001 6 6     100%       1032.5      
Sep 13 03:51 Calm 0.4 Fog VV001 6 6     100%       1032.1      
Sep 13 02:51 Calm 0.4 Fog VV001 6 6     100%       1031.2      
Sep 13 02:08 Calm 0.8 Fog VV001 6 5     96%              
Sep 13 02:01 Calm 1.61 Fog/Mist VV001 5 4     96%              
Sep 13 01:59 Calm 2.41 Fog/Mist SCT001 5 4     96%              
Sep 13 01:51 Calm 16.09 Mostly Clear FEW001 6 4     92%       1031.2      
Sep 13 00:51 Calm 16.09 Clear CLR 6 6     97%       1030.9      
Sep 12 23:51 Calm 16.09 Clear CLR 6 6     97%       1030.4      
Sep 12 22:51 Calm 16.09 Clear CLR 7 6     93%       1030.1      
Sep 12 21:51 Calm 16.09 Clear CLR 8 7     90%       1029.7      
Sep 12 20:51 Calm 16.09 Clear CLR 8 7     90%       1029      
Sep 12 19:51 Calm 16.09 Clear CLR 11 7     77%       1028.3      
Sep 12 18:51 N 8 16.09 Clear CLR 14 7     62%       1027.3      
Sep 12 17:51 N 15 16.09 Partly Cloudy SCT047 16 7     56%       1026.5      
May 15 09:51 W 5 11.27 Light Rain BKN035 OVC090 17 17     97%       1008.7 0    
May 14 20:51 S 9 16.09 Clear CLR 19 10     56%       1011.4      
May 14 11:51 Calm 16.09 Clear CLR 20 8     47%       1013.9      
May 13 21:51 S 17 16.09 Clear CLR 14 3     47%       1017      
May 13 16:51 SE 17 16.09 Clear CLR 21 -1     24%       1017.4      
May 13 00:51 Calm 16.09 Clear CLR 4 2     83%       1022.2      
May 12 16:51 S 13 16.09 Clear   16 -1     32%       1019.1      
May 12 12:51 SSW 11 16.09 Clear CLR 13 -3     31%       1021.6      
May 12 08:51 5 16.09 Clear CLR 7 1     65% 6     1024.6      
May 11 14:51 NW 17 16.09 Clear CLR 11 -4     36%       1019.4      
May 11 13:51 WNW 28 16.09 Clear CLR 9 -5     36% 6     1019.3      
Jun 11 20:51 NW 5 16.09 Clear CLR 26 17     58%   26   1013.3      
Jun 10 21:51 S 9 16.09 Clear CLR 21 14     65%       1014.5      
Jun 10 18:51 SW 17 16.09 Partly Cloudy SCT100 24 14     54%   24   1013.5      
Jun 10 17:51 SW 11 16.09 Clear CLR 24 13     50%   24   1013.4      
Jun 10 05:15 Calm 3.22 Fog/Mist BKN001 9 9     100%              
Notice The following observation data may not be complete
Jun 10 05:10   16.09 Partly Cloudy SCT001          %              
Jun 08 20:51 S 17 16.09 Clear CLR 20 11     55%       1011.7      
Jun 07 21:51 Calm 16.09 Clear CLR 13 9     77%       1017.5      
Jun 07 12:51 N 21 16.09 Clear CLR 20 9     49%       1016.9      
Jun 06 11:51 NE 9 9.66 Light Rain and Fog/Mist BKN006 OVC050 9 9     100% 8     1013.2 0    
Jun 05 19:51 SSE 13 16.09 Cloudy OVC020 12 9     83%       1012.9 0   0
Jun 05 16:51 SSE 17 16.09 Cloudy OVC018 13 11     87%       1012.3   0